Weather History for Jackson, TN

Change the Weather History Date:

Saturday, April 13, 2013

  Actual Average Record
Temperature  
Mean Temperature 55 °F 59 °F  
Max Temperature 70 °F 72 °F 86 °F (1977)
Min Temperature 40 °F 47 °F 31 °F (1950)
Degree Days  
Heating Degree Days 10 7  
Month to date heating degree days 126 112  
Since 1 July heating degree days 3463 3440  
Cooling Degree Days 0 1  
Month to date cooling degree days 23 13  
Year to date cooling degree days 27 24  
Growing Degree Days 4 (Base 50)    
Moisture  
Dew Point 40 °F    
Average Humidity 62    
Maximum Humidity 89    
Minimum Humidity 35    
Precipitation  
Precipitation 0.00 in 0.16 in 1.53 in (1991)
Month to date precipitation 4.07 2.02  
Year to date precipitation 19.86 15.01  
Snow  
Snow 0.00 in 0.00 in 3.50 in (2004)
Month to date snowfall 0.0 0.1  
Since 1 July snowfall 1.4 4.7  
Snow Depth 0.00 in    
Sea Level Pressure  
Sea Level Pressure 30.03 in    
Wind  
Wind Speed 3 mph (NE)    
Max Wind Speed 13 mph    
Max Gust Speed 15 mph    
Visibility 10 miles    
Events      
T = Trace of Precipitation, MM = Missing Value Source: NWS Daily Summary

Daily Weather History Graph

Daily Weather History Graph

Search for Another Location

Airport:

Trip Planner

Search our weather history database for the weather conditions in past years. The results will help you decide how hot, cold, wet, or windy it might be!

Date:

Astronomy

Apr. 13, 2013 Rise Set
Actual Time 6:25 AM CDT 7:27 PM CDT
Civil Twilight 5:59 AM CDT 7:53 PM CDT
Nautical Twilight 5:28 AM CDT 8:24 PM CDT
Astronomical Twilight 4:56 AM CDT 8:57 PM CDT
Moon 8:22 AM CDT (4/13) 10:45 PM CDT (4/13)
Length of Visible Light 13h 54m
Length of Day
13h 02m
Waxing Crescent, 10% of the Moon is Illuminated
Apr 13
Waxing Crescent
Apr 18
First Quarter
Apr 25
Full
May 2
Last Quarter
May 9
New

Hourly Weather History & Observations

Time (CDT) Temp. Windchill Dew Point Humidity Pressure Visibility Wind Dir Wind Speed Gust Speed Precip Events Conditions
12:53 AM 44.1 °F - 41.0 °F 89% 30.02 in 10.0 mi Calm Calm - N/A   Clear
1:53 AM 46.0 °F 41.9 °F 39.9 °F 79% 30.04 in 10.0 mi NNE 8.1 mph - N/A   Clear
2:53 AM 43.0 °F 38.2 °F 37.9 °F 82% 30.04 in 10.0 mi NNE 8.1 mph - N/A   Clear
3:53 AM 43.0 °F 37.2 °F 37.0 °F 80% 30.05 in 10.0 mi NNE 10.4 mph - N/A   Clear
4:53 AM 42.1 °F 37.1 °F 36.0 °F 79% 30.07 in 10.0 mi NE 8.1 mph - N/A   Clear
5:53 AM 39.9 °F 35.8 °F 35.1 °F 83% 30.06 in 10.0 mi ENE 5.8 mph - N/A   Clear
6:53 AM 39.9 °F - 34.0 °F 79% 30.09 in 10.0 mi Calm Calm - N/A   Clear
7:53 AM 45.0 °F 42.6 °F 37.0 °F 74% 30.12 in 10.0 mi East 4.6 mph - N/A   Clear
8:53 AM 50.0 °F - 37.9 °F 63% 30.12 in 10.0 mi East 5.8 mph - N/A   Clear
9:53 AM 54.0 °F - 37.0 °F 53% 30.12 in 10.0 mi East 5.8 mph - N/A   Clear
10:53 AM 57.0 °F - 37.0 °F 47% 30.11 in 10.0 mi East 4.6 mph - N/A   Clear
11:53 AM 60.1 °F - 36.0 °F 41% 30.10 in 10.0 mi Calm Calm - N/A   Clear
12:53 PM 63.0 °F - 37.9 °F 40% 30.07 in 10.0 mi North 4.6 mph - N/A   Clear
1:53 PM 66.0 °F - 39.9 °F 38% 30.05 in 10.0 mi Calm Calm - N/A   Clear
2:53 PM 68.0 °F - 39.9 °F 36% 30.03 in 10.0 mi NW 3.5 mph - N/A   Clear
3:53 PM 69.1 °F - 41.0 °F 36% 30.01 in 10.0 mi NNW 4.6 mph - N/A   Clear
4:53 PM 70.0 °F - 43.0 °F 38% 29.99 in 10.0 mi Calm Calm - N/A   Partly Cloudy
5:53 PM 70.0 °F - 44.1 °F 39% 29.97 in 10.0 mi Calm Calm - N/A   Clear
6:53 PM 66.0 °F - 43.0 °F 43% 29.96 in 10.0 mi North 4.6 mph - N/A   Clear
7:53 PM 60.1 °F - 43.0 °F 53% 29.96 in 10.0 mi Calm Calm - N/A   Clear
8:53 PM 55.0 °F - 45.0 °F 69% 29.96 in 10.0 mi Calm Calm - N/A   Clear
9:53 PM 51.1 °F - 45.0 °F 80% 29.96 in 10.0 mi Calm Calm - N/A   Clear
10:53 PM 50.0 °F - 45.0 °F 83% 29.96 in 10.0 mi Calm Calm - N/A   Clear
11:53 PM 50.0 °F - 44.1 °F 80% 29.95 in 10.0 mi Calm Calm - N/A   Clear